[[{"header":{"parameterUnit":"m.s-1","parameterCategory":1,"la1":30.2991,"la2":30.254,"lo1":-89.0895,"lo2":-89.0444,"dx":0.0017,"dy":0.0017,"nx":28,"ny":28,"refTime":"2023-01-23T03:00:00:Z","depth":0,"parameterNumber":2,"parameterNumberName":"U-component_of_WINDS"},"data":[0,0,0,0,0,0,0,0,0,0,0,0,0,0,0,0,0,0,0,0,0,0,0,0,0,0,0,0,0,0,0,0,0,0,0,0,0,0,0,0,0,0,0,0,0,0,0,0,0,0,0,0,0,0,0,0,0,0,3.6389,3.639,0,3.6474,3.6475,3.6476,3.6405,3.6402,3.6399,3.6397,3.6484,3.6489,3.6494,0,0,0,0,0,0,0,0,0,0,0,0,0,3.6165,3.617,3.6389,3.639,3.6391,3.6474,3.6475,3.6477,3.6406,3.6402,3.6399,3.6395,3.6483,3.6489,3.6495,0,0,0,0,0,0,0,0,0,0,0,0,0,3.6258,3.6171,3.6389,3.6366,3.6365,3.6474,3.6475,3.6477,3.6407,3.6402,3.6398,3.6393,3.6481,3.6488,3.6496,3.6632,0,0,3.6519,3.6522,0,0,0,0,0,0,0,0,3.6253,3.6266,3.6368,3.6368,3.6367,3.6425,3.6429,3.6529,3.6408,3.6391,3.6396,3.6391,3.6468,3.6477,3.6502,3.6636,3.664,3.652,3.6524,3.6528,3.653,0,0,0,0,0,0,0,3.6246,3.6262,3.6423,3.637,3.6369,3.6351,3.636,3.6447,3.6454,3.6392,3.6387,3.6398,3.6467,3.6495,3.6504,3.6641,3.652,3.6526,3.6531,3.6534,3.689,3.6895,0,0,0,0,0,0,3.6242,3.6257,3.642,3.6425,3.6297,3.6359,3.6368,3.6411,3.6452,3.6454,3.6402,3.6394,3.6484,3.6495,3.6507,3.6668,3.6528,3.6535,3.6539,3.6885,3.6891,3.6897,0,0,0,0,0,0,3.6238,3.6257,3.6417,3.634,3.6359,3.6368,3.6416,3.6415,3.6443,3.646,3.646,3.6429,3.6481,3.6496,3.6601,3.667,3.6538,3.6545,3.688,3.6887,3.6894,3.6993,0,0,0,0,0,0,3.6232,3.6256,3.6308,3.6342,3.6363,3.651,3.642,3.6419,3.6456,3.6447,3.6486,3.6488,3.6479,3.659,3.6609,3.6678,3.6551,3.6874,3.6883,3.6892,3.6984,3.7003,3.7019,0,0,0,0,0,3.6224,3.6333,3.6311,3.6331,3.6429,3.6514,3.6527,3.6514,3.6462,3.6514,3.6525,3.6487,3.666,3.6602,3.6622,3.6695,3.6869,3.688,3.6891,3.6976,3.6999,3.7019,0,0,0,0,0,0,3.6308,3.6337,3.6313,3.6437,3.6474,3.6502,3.6568,3.6539,3.6591,3.6581,3.6563,3.6572,3.6683,3.6699,3.6634,3.6829,3.6756,3.6772,3.6814,3.6836,3.6853,3.6847,3.6558,0,0,0,0,0,3.6341,3.6409,3.643,3.6537,3.6557,3.6559,3.6596,3.6583,3.662,3.6636,3.6654,3.6692,3.6754,3.6796,3.6855,3.6986,3.6993,3.7046,3.7064,3.7078,3.7092,3.7161,3.7185,3.6933,3.6932,3.6932,0,0,3.641,3.6434,3.6478,3.6555,3.6582,3.6651,3.6573,3.665,3.6702,3.6647,3.6747,3.6762,3.6803,3.6922,3.6975,3.6939,3.7163,3.7092,3.7104,3.7109,3.7175,3.7198,3.722,3.694,3.6939,3.6937,0,0,3.6571,3.6597,3.6688,3.6716,3.6758,3.6759,3.6781,3.6814,3.6821,3.6921,3.6881,3.6942,3.7051,3.7081,3.7111,3.7283,3.7249,3.7303,3.7395,3.7463,3.7483,3.75,3.756,3.7582,3.7316,3.7316,3.7316,0,3.6652,3.6755,3.6739,3.6819,3.6853,3.6807,3.6898,3.6927,3.6986,3.7011,3.697,3.7104,3.7129,3.7253,3.7294,3.7321,3.7344,3.7298,3.7481,3.7499,3.7515,3.7572,3.7595,3.7322,3.7322,3.7321,3.7321,0,3.6851,3.6924,3.6992,3.7049,3.7092,3.7178,3.7174,3.7218,3.7201,3.7206,3.7308,3.7336,3.7399,3.7427,3.7412,3.7549,3.7526,3.7484,3.741,3.7545,3.7598,3.762,3.7331,3.7329,3.7327,3.7326,0,0,3.7068,3.7114,3.714,3.7165,3.7207,3.7262,3.7345,3.7406,3.7444,3.7487,3.7555,3.7648,3.7609,3.7643,3.763,3.769,3.7822,3.764,3.764,3.7672,3.7974,3.8005,3.803,3.78,3.7805,3.7808,3.797,0,3.723,3.7374,3.7361,3.7498,3.7564,3.7521,3.7593,3.7626,3.7633,3.769,3.7697,3.7763,3.7707,3.7727,3.7784,3.7794,3.7882,3.7782,3.7864,3.7867,3.7854,3.8058,3.8092,3.8243,3.7991,3.7994,3.7997,0,3.7438,3.7487,3.763,3.766,3.7688,3.7753,3.7807,3.7862,3.7899,3.7899,3.7937,3.7914,3.7997,3.7922,3.8036,3.7969,3.8001,3.8011,3.8017,3.8023,3.794,3.8069,3.8292,3.8314,3.803,3.8027,3.8025,0,3.7581,3.7682,3.778,3.7803,3.7841,3.7888,3.7906,3.7939,3.7976,3.8023,3.8047,3.8104,3.8135,3.8179,3.8172,3.8119,3.8288,3.8213,3.829,3.8291,3.8327,3.8325,3.8557,3.835,3.835,3.835,3.8349,0,3.7762,3.7851,3.7844,3.7905,3.8003,3.7987,3.8085,3.8097,3.8126,3.8188,3.8154,3.8213,3.82,3.8259,3.8254,3.8348,3.8363,3.8365,3.8363,3.8368,3.8367,3.8388,3.8377,3.8356,3.8354,3.8353,3.8352,0,3.7938,3.7937,3.8041,3.8068,3.8077,3.8148,3.8172,3.8229,3.8232,3.8311,3.8329,3.8335,3.8402,3.8399,3.8475,3.8471,3.8587,3.8573,3.8575,3.8571,3.8648,3.8641,3.8901,3.8934,3.8707,3.8709,3.8711,0,3.8053,3.812,3.8155,3.8194,3.8215,3.8278,3.8315,3.8302,3.8342,3.8389,3.844,3.8503,3.8554,3.8662,3.8674,3.8731,3.8717,3.8805,3.8726,3.8728,3.8717,3.8713,3.8719,3.882,3.8822,3.8825,3.8826,0,3.8258,3.8254,3.8309,3.8364,3.8409,3.8452,3.8491,3.8525,3.8516,3.8563,3.863,3.8669,3.8746,3.8809,3.8864,3.8883,3.8853,3.8851,3.8872,3.8877,3.8875,3.8876,3.8616,3.8845,3.8843,3.8842,3.8841,3.884,3.8406,3.8463,3.8496,3.8558,3.8586,3.8623,3.8677,3.8688,3.8744,3.8805,3.8794,3.8869,3.8903,3.8974,3.8998,3.9056,3.9025,3.9056,3.9063,3.9071,3.9079,3.8866,3.9067,3.9066,3.9065,3.9065,3.9065,0,3.8608,3.8627,3.8684,3.8739,3.8788,3.8756,3.8797,3.884,3.8906,3.894,3.899,3.9067,3.9128,3.9144,3.9202,3.9246,3.9234,3.9262,3.9258,3.9263,3.9104,3.9079,3.9271,3.9271,3.9271,3.9271,3.9271,3.927,3.8719,3.8814,3.8813,3.8921,3.8939,3.9012,3.9039,3.9072,3.9099,3.9187,3.9237,3.9246,3.9273,3.9333,3.9387,3.939,3.9413,3.9446,3.9443,3.9295,3.9274,3.9254,3.9231,3.9451,3.9451,3.9597,3.9598,3.9599]},{"header":{"parameterUnit":"m.s-1","parameterCategory":1,"la1":30.2991,"la2":30.254,"lo1":-89.0895,"lo2":-89.0444,"dx":0.0017,"dy":0.0017,"nx":28,"ny":28,"refTime":"2023-01-23T03:00:00:Z","depth":0,"parameterNumber":3,"parameterNumberName":"V-component_of_WINDS"},"data":[0,0,0,0,0,0,0,0,0,0,0,0,0,0,0,0,0,0,0,0,0,0,0,0,0,0,0,0,0,0,0,0,0,0,0,0,0,0,0,0,0,0,0,0,0,0,0,0,0,0,0,0,0,0,0,0,0,0,0.9785,0.9783,0,0.9649,0.9647,0.9646,0.9581,0.9581,0.9581,0.9581,0.9433,0.9429,0.9425,0,0,0,0,0,0,0,0,0,0,0,0,0,0.9979,0.9976,0.9785,0.9783,0.9782,0.9649,0.9647,0.9645,0.9581,0.9581,0.9581,0.9581,0.9434,0.943,0.9425,0,0,0,0,0,0,0,0,0,0,0,0,0,0.9874,0.9975,0.9785,0.9734,0.9728,0.9649,0.9647,0.9645,0.9581,0.9581,0.9581,0.9581,0.9436,0.943,0.9424,0.9384,0,0,0.9406,0.9403,0,0,0,0,0,0,0,0,0.988,0.9867,0.9743,0.9737,0.973,0.9632,0.9661,0.9557,0.9581,0.9636,0.9581,0.9581,0.9499,0.9488,0.9461,0.9378,0.9371,0.9405,0.9402,0.9399,0.9397,0,0,0,0,0,0,0,0.9888,0.9872,0.9731,0.9741,0.9733,0.9714,0.9699,0.9641,0.9568,0.9631,0.9626,0.9612,0.9495,0.9467,0.9457,0.9369,0.9405,0.94,0.9396,0.9394,0.9241,0.924,0,0,0,0,0,0,0.9905,0.9879,0.9735,0.9727,0.9807,0.971,0.9694,0.9663,0.9569,0.9555,0.9612,0.9609,0.9478,0.9465,0.9452,0.9396,0.9399,0.9393,0.939,0.9241,0.924,0.924,0,0,0,0,0,0,0.9909,0.9892,0.9741,0.9801,0.9781,0.9707,0.9673,0.9661,0.9633,0.9554,0.9539,0.9597,0.9477,0.946,0.9401,0.939,0.9391,0.9385,0.9242,0.9241,0.924,0.9287,0,0,0,0,0,0,0.9915,0.9894,0.9881,0.9802,0.9778,0.9696,0.9673,0.9658,0.9624,0.9619,0.9537,0.9523,0.9476,0.9411,0.9395,0.9382,0.9381,0.9242,0.9241,0.924,0.9286,0.9288,0.9289,0,0,0,0,0,0.9922,0.9899,0.9881,0.9864,0.976,0.9695,0.9681,0.963,0.9623,0.9607,0.9556,0.9526,0.9394,0.9405,0.9387,0.9372,0.9243,0.9242,0.9241,0.9285,0.9287,0.9289,0,0,0,0,0,0,0.9977,0.9888,0.9867,0.9818,0.9765,0.9685,0.9663,0.9635,0.958,0.9578,0.9514,0.9496,0.9442,0.9401,0.9414,0.9326,0.9315,0.9311,0.9355,0.9357,0.9359,0.9369,0.9376,0,0,0,0,0,0.9984,0.9941,0.9864,0.9828,0.9803,0.9738,0.9708,0.9673,0.9614,0.9591,0.9535,0.9477,0.9422,0.9387,0.9333,0.928,0.9258,0.926,0.9262,0.9264,0.926,0.9225,0.9223,0.9237,0.9237,0.9237,0,0,0.9996,0.9942,0.9919,0.9838,0.9793,0.9747,0.9719,0.9673,0.9637,0.9583,0.9524,0.948,0.9411,0.9354,0.9326,0.9318,0.9251,0.9262,0.9264,0.9259,0.9223,0.9222,0.9221,0.9236,0.9236,0.9236,0,0,0.9996,0.9952,0.9916,0.9871,0.9804,0.976,0.9752,0.9675,0.9645,0.9585,0.9542,0.9497,0.9405,0.9356,0.9319,0.9297,0.9266,0.9281,0.929,0.9256,0.9255,0.9254,0.9243,0.924,0.9278,0.9278,0.9278,0,1.0019,0.9952,0.99,0.9856,0.9819,0.977,0.973,0.9688,0.9606,0.958,0.9573,0.9455,0.9404,0.9334,0.9328,0.9301,0.9286,0.929,0.926,0.9258,0.9256,0.9245,0.9241,0.928,0.928,0.9279,0.9279,0,0.9982,0.9936,0.9914,0.9838,0.9799,0.9757,0.9695,0.9661,0.9629,0.9585,0.9522,0.946,0.939,0.9371,0.9339,0.9294,0.9291,0.9273,0.926,0.9258,0.9246,0.9242,0.9283,0.9282,0.9282,0.9281,0,0,1.0014,0.9908,0.9901,0.9864,0.9785,0.9746,0.9699,0.9634,0.9604,0.9548,0.9505,0.9427,0.9409,0.9367,0.9328,0.9299,0.9281,0.9284,0.9281,0.9283,0.9224,0.9237,0.9234,0.9261,0.926,0.9259,0.9229,0,1.0001,0.992,0.987,0.9807,0.9761,0.9712,0.9671,0.9616,0.9573,0.9524,0.9475,0.942,0.9402,0.9376,0.9345,0.9291,0.9268,0.9292,0.9216,0.9214,0.9234,0.9228,0.9242,0.9217,0.9225,0.9224,0.9223,0,0.9975,0.9922,0.9855,0.9778,0.9757,0.9721,0.9655,0.9611,0.9545,0.9515,0.9468,0.9428,0.9373,0.9366,0.9286,0.9304,0.9269,0.9237,0.9235,0.9224,0.9218,0.9215,0.9208,0.9204,0.9216,0.9217,0.9217,0,1.0002,0.9913,0.986,0.983,0.974,0.9716,0.9676,0.9611,0.9574,0.9514,0.9489,0.9423,0.9387,0.9335,0.9277,0.9278,0.9202,0.9191,0.9172,0.9174,0.9158,0.9159,0.9144,0.9139,0.9139,0.9139,0.914,0,0.9992,0.9952,0.9871,0.9838,0.9791,0.9733,0.9686,0.9642,0.9584,0.9539,0.9491,0.945,0.9377,0.9324,0.9278,0.9218,0.9202,0.9173,0.9161,0.9177,0.918,0.9152,0.9151,0.9138,0.9139,0.9139,0.9139,0,1.0013,0.9958,0.9897,0.9816,0.9795,0.9763,0.9692,0.9656,0.961,0.9553,0.9536,0.9463,0.9398,0.9336,0.9249,0.9218,0.9156,0.9142,0.918,0.9172,0.9157,0.9158,0.9121,0.9111,0.9116,0.9116,0.9116,0,1.001,0.9978,0.9894,0.9862,0.9824,0.9773,0.9734,0.9674,0.9635,0.9557,0.9529,0.9462,0.9405,0.9304,0.924,0.9172,0.9154,0.9145,0.9143,0.9158,0.915,0.9152,0.9147,0.9147,0.9147,0.9147,0.9147,0,1.0009,0.9982,0.9931,0.9868,0.9824,0.9771,0.9716,0.9691,0.962,0.9578,0.9513,0.9469,0.938,0.9312,0.9237,0.9191,0.9155,0.9149,0.914,0.9155,0.9177,0.9162,0.9181,0.9149,0.9149,0.9149,0.9149,0.9149,1.0016,0.9984,0.992,0.9862,0.9815,0.9764,0.9726,0.9675,0.9621,0.9546,0.9512,0.9446,0.9376,0.9271,0.9226,0.917,0.9162,0.915,0.9147,0.9145,0.9147,0.9188,0.9156,0.9156,0.9156,0.9156,0.9156,0,1.001,0.9966,0.9914,0.9839,0.9793,0.9766,0.9703,0.9665,0.9608,0.9548,0.9492,0.9415,0.9348,0.9279,0.9207,0.9175,0.9156,0.9158,0.9158,0.9148,0.916,0.9173,0.9174,0.9174,0.9174,0.9174,0.9174,0.9174,1.0002,0.9946,0.9912,0.983,0.9784,0.9721,0.9687,0.9638,0.9589,0.9506,0.9451,0.9407,0.9341,0.9264,0.92,0.918,0.9155,0.916,0.9136,0.9148,0.9147,0.9146,0.9159,0.9156,0.9156,0.9128,0.9128,0.9128]}]]